This is the latest recevied weather packets stored in our database for station/object W8AN. If no packets are shown the sender has not sent any weather packets the latest 10 day(s).
| Time | Temp. | Humidity | Pressure | Rain* | Wind** | Luminosity | Snow |
|---|---|---|---|---|---|---|---|
| 1777424406 | 13.89° C | 78% | 4268.2 hPa | 0 mm | - | 0 W/m² | - |
| 1777424102 | 13.89° C | 78% | 4268.5 hPa | 0 mm | - | 0 W/m² | - |
| 1777423800 | 13.89° C | 77% | 4268.1 hPa | 0 mm | - | 0 W/m² | - |
| 1777423496 | 14.44° C | 76% | 4267.9 hPa | 0 mm | - | 0 W/m² | - |
| 1777423191 | 13.89° C | 76% | 4267.7 hPa | 0 mm | - | 0 W/m² | - |
| 1777422885 | 13.89° C | 77% | 4267.7 hPa | 0 mm | - | 0 W/m² | - |
| 1777422581 | 14.44° C | 76% | 4267.7 hPa | 0 mm | - | 0 W/m² | - |
| 1777422277 | 14.44° C | 76% | 4267.6 hPa | 0 mm | - | 2 W/m² | - |
| 1777421977 | 14.44° C | 75% | 4267.3 hPa | 0 mm | - | 5 W/m² | - |
| 1777421672 | 14.44° C | 75% | 4267.4 hPa | 0 mm | - | 9 W/m² | - |
| 1777421367 | 15° C | 74% | 4267.2 hPa | 0 mm | - | 16 W/m² | - |
| 1777421064 | 15° C | 73% | 4267.4 hPa | 0 mm | - | 20 W/m² | - |
| 1777420761 | 15° C | 73% | 4267.3 hPa | 0 mm | - | 22 W/m² | - |
| 1777420456 | 15° C | 73% | 4267.5 hPa | 0 mm | - | 19 W/m² | - |
| 1777420153 | 15° C | 73% | 4267.3 hPa | 0 mm | - | 27 W/m² | - |
| 1777419849 | 15° C | 73% | 4267.3 hPa | 0 mm | - | 32 W/m² | - |
| 1777419547 | 15.56° C | 72% | 4267.5 hPa | 0 mm | - | 32 W/m² | - |
| 1777419245 | 15.56° C | 73% | 4267.9 hPa | 0 mm | - | 31 W/m² | - |
| 1777418943 | 15.56° C | 73% | 4267.9 hPa | 0 mm | - | 30 W/m² | - |
| 1777418637 | 15.56° C | 71% | 4268 hPa | 0 mm | - | 45 W/m² | - |
| 1777418334 | 15.56° C | 71% | 4267.7 hPa | 0 mm | - | 49 W/m² | - |
| 1777418030 | 15.56° C | 72% | 4267.8 hPa | 0 mm | - | 58 W/m² | - |
| 1777417726 | 15.56° C | 72% | 4267.8 hPa | 0 mm | - | 63 W/m² | - |
| 1777417422 | 15.56° C | 71% | 4268.2 hPa | 0 mm | - | 49 W/m² | - |
| 1777417118 | 15.56° C | 71% | 4268.4 hPa | 0 mm | - | 59 W/m² | - |
* Rain latest hour (hover to see other rain measurements)
** Current wind speed in m/s (hover to see current wind gust speed)